[[{"header":{"parameterUnit":"m.s-1","parameterCategory":2,"la1":30.2992,"la2":30.254,"lo1":-89.0895,"lo2":-89.0443,"dy":0.0025,"dx":0.0025,"nx":19,"ny":19,"refTime":"2026-04-13T09:00:00:Z","depth":"0","parameterNumber":2,"parameterNumberName":"U-component_of_CURRENTS"},"data":[0,0,0,-0.1327,-0.1327,-0.133,-0.133,-0.1297,-0.1297,0,0,0,0,0,0,0,0,0,0,0,-0.1318,-0.1318,-0.1327,-0.1327,-0.133,-0.133,-0.1297,-0.1297,0,0,0,0,0,0,0,0,0,0,0,-0.1318,-0.1318,-0.1318,-0.1328,-0.133,-0.133,-0.1298,-0.1303,0,0,0,0,0,0,0,0,0,0,-0.1305,-0.1303,-0.1318,-0.1318,-0.1328,-0.133,-0.133,-0.1304,-0.1303,-0.1287,0,-0.1285,0,-0.1295,-0.1294,-0.1294,0,0,0,-0.1323,-0.1304,-0.1307,-0.1318,-0.1328,-0.133,-0.1328,-0.1304,-0.1303,-0.1286,-0.1285,-0.1284,-0.1294,-0.1294,-0.1294,-0.134,-0.1341,0,0,-0.1323,-0.1316,-0.1308,-0.1306,-0.1324,-0.1328,-0.1328,-0.1303,-0.1298,-0.1285,-0.1284,-0.1294,-0.1294,-0.1294,-0.1339,-0.134,0,0,0,-0.1325,-0.1316,-0.132,-0.1307,-0.1313,-0.1328,-0.1328,-0.1299,-0.1301,-0.1283,-0.1293,-0.1294,-0.1293,-0.1338,-0.134,-0.1434,0,0,0,-0.1325,-0.1318,-0.132,-0.1315,-0.1313,-0.1311,-0.1324,-0.1302,-0.13,-0.1293,-0.1294,-0.1293,-0.1338,-0.1339,-0.143,-0.1494,0,0,0,-0.1319,-0.1317,-0.1317,-0.1315,-0.132,-0.1312,-0.1313,-0.1302,-0.1306,-0.1294,-0.1293,-0.1337,-0.1339,-0.1426,-0.1486,-0.1622,0,0,0,-0.1313,-0.1331,-0.1316,-0.135,-0.132,-0.1379,-0.1313,-0.1334,-0.1332,-0.1293,-0.1338,-0.134,-0.1425,-0.1482,-0.1616,-0.1485,-0.1503,0,0,-0.134,-0.1334,-0.136,-0.1348,-0.1415,-0.1378,-0.1453,-0.1405,-0.1354,-0.134,-0.1341,-0.1431,-0.1486,-0.162,-0.1595,-0.1609,0,0,0,-0.1374,-0.1386,-0.1407,-0.1437,-0.1469,-0.1509,-0.1477,-0.1474,-0.1459,-0.1362,-0.1443,-0.1475,-0.1558,-0.1466,-0.1478,-0.1366,-0.1348,-0.1348,-0.1348,-0.1391,-0.1424,-0.1473,-0.1516,-0.1558,-0.1597,-0.1638,-0.1624,-0.1543,-0.1558,-0.1561,-0.174,-0.164,-0.1648,-0.1535,-0.1557,-0.1558,-0.1558,-0.1558,-0.1434,-0.1457,-0.1514,-0.1567,-0.1626,-0.168,-0.1757,-0.1736,-0.1808,-0.1685,-0.176,-0.1578,-0.1666,-0.1541,-0.1564,-0.1563,-0.1563,-0.1562,-0.1562,-0.1425,-0.144,-0.1476,-0.1554,-0.1643,-0.1713,-0.1845,-0.188,-0.1901,-0.1969,-0.1875,-0.187,-0.1758,-0.1995,-0.1996,-0.1997,-0.1998,-0.1999,-0.1999,-0.1383,-0.1428,-0.1456,-0.1543,-0.16,-0.1717,-0.1891,-0.1995,-0.2048,-0.1998,-0.1996,-0.1795,-0.1874,-0.1855,-0.2013,-0.201,-0.2009,-0.2007,-0.2006,-0.1352,-0.1358,-0.14,-0.145,-0.1602,-0.168,-0.1881,-0.2013,-0.215,-0.2155,-0.1897,-0.2028,-0.2001,-0.1987,-0.197,-0.2151,-0.2151,-0.2151,-0.2151,-0.1302,-0.132,-0.1349,-0.1421,-0.1553,-0.1665,-0.1723,-0.1796,-0.1848,-0.1803,-0.1898,-0.1717,-0.1716,-0.1664,-0.1657,-0.1629,-0.172,-0.1719,-0.1719,-0.1266,-0.128,-0.128,-0.1355,-0.1508,-0.1607,-0.1527,-0.1454,-0.1563,-0.1696,-0.1785,-0.1803,-0.1529,-0.1536,-0.1437,-0.1437,-0.1385,0,0]},{"header":{"parameterUnit":"m.s-1","parameterCategory":2,"la1":30.2992,"la2":30.254,"lo1":-89.0895,"lo2":-89.0443,"dy":0.0025,"dx":0.0025,"nx":19,"ny":19,"refTime":"2026-04-13T09:00:00:Z","depth":"0","parameterNumber":3,"parameterNumberName":"V-component_of_CURRENTS"},"data":[0,0,0,-0.0115,-0.0114,-0.0042,-0.0042,0.0071,0.0072,0,0,0,0,0,0,0,0,0,0,0,-0.0142,-0.0142,-0.0115,-0.0114,-0.0042,-0.0042,0.0071,0.0072,0,0,0,0,0,0,0,0,0,0,0,-0.0142,-0.0142,-0.0142,-0.0114,-0.0042,-0.0042,0.0071,0.0015,0,0,0,0,0,0,0,0,0,0,-0.0057,-0.0087,-0.0142,-0.0142,-0.0114,-0.0042,-0.0042,0.0012,0.0018,0.0041,0,0.0042,0,0.0056,0.0079,0.008,0,0,0,-0.0101,-0.0092,-0.0077,-0.0142,-0.0113,-0.0042,-0.0071,0.0015,0.0022,0.0049,0.0043,0.0048,0.0057,0.008,0.008,0.0146,0.0146,0,0,-0.0105,-0.012,-0.0083,-0.0073,-0.0107,-0.0073,-0.0069,0.002,0.0025,0.0044,0.005,0.0059,0.008,0.0081,0.0147,0.0146,0,0,0,-0.0125,-0.0123,-0.011,-0.0078,-0.0069,-0.0072,-0.0066,0.0021,0.0024,0.0051,0.0061,0.0081,0.0082,0.0147,0.0147,0.007,0,0,0,-0.0127,-0.0136,-0.0112,-0.0119,-0.0071,-0.0025,-0.0067,0.0018,0.0028,0.006,0.0081,0.0083,0.0147,0.0147,0.0072,0.0009,0,0,0,-0.0143,-0.0137,-0.0134,-0.012,-0.0095,-0.0027,-0.0018,0.002,0.0033,0.008,0.0084,0.0147,0.0147,0.0074,0.0013,0.0014,0,0,0,-0.0153,-0.0176,-0.0135,-0.0151,-0.0096,-0.0074,-0.0018,0.0015,0.0049,0.0082,0.0147,0.0147,0.0074,0.0016,0.0017,0.0051,0.0044,0,0,-0.0195,-0.0181,-0.0191,-0.0153,-0.0164,-0.0082,-0.0071,-0.0,0.0058,0.0122,0.0123,0.0071,0.0014,0.0015,0.0046,0.0038,0,0,0,-0.0212,-0.0228,-0.022,-0.0213,-0.0172,-0.0144,-0.006,-0.0013,0.005,0.0076,0.0091,0.0057,0.006,0.0087,0.0081,0.0311,0.0146,0.0146,0.0146,-0.0293,-0.0276,-0.0306,-0.0282,-0.0258,-0.0176,-0.0139,-0.0059,0.0013,0.0034,0.001,-0.0026,0.0003,-0.0002,0.0235,0.0045,0.0044,0.0044,0.0044,-0.0385,-0.0411,-0.0384,-0.0407,-0.0356,-0.0331,-0.0222,-0.0159,-0.0087,-0.0032,-0.0024,0.0023,-0.0013,0.0242,0.0039,0.004,0.0041,0.0041,0.0042,-0.0451,-0.0466,-0.0473,-0.0504,-0.0505,-0.0432,-0.0435,-0.0317,-0.0184,-0.0176,-0.0095,-0.0093,0.0119,-0.0151,-0.0151,-0.0151,-0.0152,-0.0152,-0.0152,-0.0516,-0.0529,-0.0582,-0.0603,-0.0632,-0.0637,-0.0553,-0.0504,-0.033,-0.0192,-0.019,0.0143,-0.0085,-0.0091,-0.0156,-0.0156,-0.0155,-0.0155,-0.0154,-0.0603,-0.0596,-0.0692,-0.0736,-0.0814,-0.0854,-0.0774,-0.0605,-0.0495,-0.0389,0.0105,-0.0171,-0.014,-0.0133,-0.0139,-0.0213,-0.0213,-0.0213,-0.0213,-0.0652,-0.0659,-0.0797,-0.0902,-0.0993,-0.0967,-0.0905,-0.0637,-0.0151,0.0141,0.0211,0.0301,0.0293,0.0356,0.0352,0.0359,0.0413,0.0415,0.0416,-0.0707,-0.0746,-0.0866,-0.0969,-0.1084,-0.1081,-0.0947,-0.0518,0.0188,0.0466,0.0526,0.0499,0.0657,0.0625,0.0744,0.072,0.0739,0,0]}],[{"header":{"parameterUnit":"m.s-1","parameterCategory":2,"la1":30.2992,"la2":30.254,"lo1":-89.0895,"lo2":-89.0443,"dy":0.0025,"dx":0.0025,"nx":19,"ny":19,"refTime":"2026-04-13T09:00:00:Z","depth":"2","parameterNumber":2,"parameterNumberName":"U-component_of_CURRENTS"},"data":[0,0,0,-0.1276,-0.1277,-0.133,-0.1331,-0.1363,-0.1363,0,0,0,0,0,0,0,0,0,0,0,-0.1247,-0.1247,-0.1276,-0.1278,-0.133,-0.1331,-0.1363,-0.1363,0,0,0,0,0,0,0,0,0,0,0,-0.1247,-0.1247,-0.1247,-0.1278,-0.133,-0.1331,-0.1363,-0.1332,0,0,0,0,0,0,0,0,0,0,-0.1285,-0.1261,-0.1247,-0.1247,-0.1278,-0.133,-0.1331,-0.1331,-0.1334,-0.1329,0,-0.133,0,-0.1352,-0.1365,-0.1365,0,0,0,-0.1277,-0.1259,-0.1276,-0.1247,-0.1279,-0.133,-0.1306,-0.1333,-0.1336,-0.1333,-0.1331,-0.1333,-0.1352,-0.1365,-0.1365,-0.139,-0.1391,0,0,-0.1275,-0.1255,-0.1274,-0.1278,-0.1283,-0.1305,-0.1308,-0.1335,-0.1332,-0.1331,-0.1334,-0.1353,-0.1365,-0.1365,-0.139,-0.1391,0,0,0,-0.1266,-0.1253,-0.127,-0.1276,-0.1291,-0.1306,-0.131,-0.133,-0.1337,-0.1335,-0.1353,-0.1365,-0.1365,-0.139,-0.139,-0.1457,0,0,0,-0.1264,-0.1249,-0.1269,-0.1258,-0.129,-0.1316,-0.1305,-0.1335,-0.1339,-0.1353,-0.1365,-0.1365,-0.139,-0.139,-0.1455,-0.1542,0,0,0,-0.1246,-0.1247,-0.1251,-0.1257,-0.1282,-0.1317,-0.1325,-0.1336,-0.135,-0.1365,-0.1365,-0.139,-0.139,-0.1453,-0.1536,-0.1674,0,0,0,-0.1228,-0.1254,-0.125,-0.1292,-0.1281,-0.1354,-0.1325,-0.136,-0.1375,-0.1365,-0.139,-0.139,-0.1453,-0.1533,-0.1669,-0.1493,-0.1502,0,0,-0.1259,-0.1256,-0.1288,-0.1287,-0.1364,-0.1347,-0.1419,-0.1409,-0.1375,-0.1378,-0.1379,-0.1456,-0.1536,-0.1673,-0.1511,-0.152,0,0,0,-0.1299,-0.1314,-0.1341,-0.1378,-0.1422,-0.1465,-0.1454,-0.1447,-0.1436,-0.1386,-0.1443,-0.1493,-0.1577,-0.1459,-0.1466,-0.1392,-0.1392,-0.1392,-0.1392,-0.1304,-0.1344,-0.1399,-0.1447,-0.1493,-0.1535,-0.1578,-0.1558,-0.1492,-0.1483,-0.1535,-0.1674,-0.1542,-0.1547,-0.149,-0.149,-0.149,-0.1491,-0.1491,-0.1348,-0.1377,-0.1431,-0.1494,-0.1548,-0.1598,-0.1664,-0.1641,-0.1716,-0.1594,-0.1672,-0.1518,-0.1558,-0.1496,-0.1495,-0.1494,-0.1494,-0.1493,-0.1493,-0.1336,-0.1356,-0.1396,-0.1478,-0.1565,-0.1631,-0.1766,-0.1796,-0.1806,-0.188,-0.1771,-0.1766,-0.1784,-0.1906,-0.1907,-0.1908,-0.1908,-0.1909,-0.191,-0.1296,-0.1344,-0.1379,-0.1471,-0.1532,-0.1654,-0.1827,-0.1933,-0.1958,-0.1882,-0.1879,-0.1817,-0.1803,-0.181,-0.1925,-0.1922,-0.192,-0.1919,-0.1918,-0.127,-0.1283,-0.1334,-0.139,-0.1549,-0.1623,-0.1819,-0.1914,-0.2053,-0.203,-0.1895,-0.189,-0.1881,-0.187,-0.1877,-0.2005,-0.2005,-0.2005,-0.2005,-0.1227,-0.1247,-0.1291,-0.1371,-0.1512,-0.1611,-0.1633,-0.168,-0.1767,-0.1742,-0.1754,-0.1554,-0.1555,-0.1518,-0.1515,-0.1511,-0.1545,-0.1544,-0.1543,-0.1192,-0.1213,-0.1222,-0.1307,-0.1472,-0.1547,-0.1416,-0.128,-0.1355,-0.1528,-0.1702,-0.1969,-0.1694,-0.1689,-0.1642,-0.1633,-0.1632,0,0]},{"header":{"parameterUnit":"m.s-1","parameterCategory":2,"la1":30.2992,"la2":30.254,"lo1":-89.0895,"lo2":-89.0443,"dy":0.0025,"dx":0.0025,"nx":19,"ny":19,"refTime":"2026-04-13T09:00:00:Z","depth":"2","parameterNumber":3,"parameterNumberName":"V-component_of_CURRENTS"},"data":[0,0,0,-0.051,-0.051,-0.0497,-0.0497,-0.0435,-0.0435,0,0,0,0,0,0,0,0,0,0,0,-0.0503,-0.0503,-0.051,-0.051,-0.0497,-0.0497,-0.0436,-0.0435,0,0,0,0,0,0,0,0,0,0,0,-0.0504,-0.0503,-0.0503,-0.051,-0.0497,-0.0497,-0.0436,-0.0456,0,0,0,0,0,0,0,0,0,0,-0.0475,-0.048,-0.0503,-0.0503,-0.051,-0.0497,-0.0497,-0.0458,-0.0455,-0.0429,0,-0.0418,0,-0.0429,-0.043,-0.0429,0,0,0,-0.0509,-0.0483,-0.0475,-0.0503,-0.051,-0.0497,-0.0502,-0.0457,-0.0453,-0.0425,-0.0418,-0.0416,-0.0428,-0.0429,-0.0429,-0.0326,-0.0325,0,0,-0.051,-0.0505,-0.0478,-0.0473,-0.0494,-0.0503,-0.0502,-0.0455,-0.0448,-0.0418,-0.0415,-0.0427,-0.0429,-0.0428,-0.0326,-0.0326,0,0,0,-0.0512,-0.0506,-0.0501,-0.0475,-0.0478,-0.0502,-0.0502,-0.045,-0.0446,-0.0415,-0.0426,-0.0428,-0.0427,-0.0327,-0.0326,-0.0315,0,0,0,-0.0513,-0.0508,-0.0501,-0.0499,-0.0479,-0.0472,-0.0497,-0.045,-0.0445,-0.0426,-0.0428,-0.0427,-0.0328,-0.0326,-0.0316,-0.0355,0,0,0,-0.0506,-0.0507,-0.0501,-0.0498,-0.0494,-0.0473,-0.0468,-0.0449,-0.0452,-0.0429,-0.0426,-0.0328,-0.0327,-0.0318,-0.0356,-0.0346,0,0,0,-0.0509,-0.0515,-0.0501,-0.0506,-0.0494,-0.0488,-0.0468,-0.0459,-0.0442,-0.0428,-0.0327,-0.0326,-0.0318,-0.0356,-0.0347,-0.03,-0.0294,0,0,-0.0527,-0.0517,-0.0522,-0.0509,-0.0516,-0.049,-0.0463,-0.0432,-0.0407,-0.0341,-0.0339,-0.0316,-0.0356,-0.0346,-0.0223,-0.0219,0,0,0,-0.0535,-0.0537,-0.0535,-0.0531,-0.0516,-0.0485,-0.045,-0.0402,-0.0335,-0.039,-0.0292,-0.0318,-0.0312,-0.0283,-0.028,-0.032,-0.032,-0.032,-0.032,-0.0574,-0.0563,-0.0573,-0.0552,-0.0531,-0.0471,-0.0421,-0.0345,-0.0321,-0.0272,-0.0288,-0.0253,-0.0219,-0.0217,-0.0242,-0.0242,-0.0242,-0.0242,-0.0242,-0.062,-0.0628,-0.0599,-0.0602,-0.0547,-0.0509,-0.039,-0.034,-0.0249,-0.0237,-0.023,-0.0249,-0.0213,-0.0241,-0.0241,-0.0241,-0.0241,-0.0241,-0.0241,-0.0657,-0.0658,-0.0649,-0.0647,-0.0617,-0.0548,-0.0523,-0.0407,-0.0279,-0.0253,-0.0228,-0.0227,-0.028,-0.0251,-0.0251,-0.0251,-0.0251,-0.0251,-0.0251,-0.0696,-0.0688,-0.0716,-0.0703,-0.0722,-0.0711,-0.0613,-0.0552,-0.0373,-0.024,-0.0238,-0.0257,-0.0257,-0.028,-0.0253,-0.0252,-0.0252,-0.0252,-0.0252,-0.0739,-0.0734,-0.0799,-0.0829,-0.0884,-0.0899,-0.0803,-0.0595,-0.0488,-0.0362,-0.0208,-0.0208,-0.0218,-0.0219,-0.024,-0.0205,-0.0205,-0.0205,-0.0205,-0.0773,-0.0773,-0.0888,-0.098,-0.1057,-0.1003,-0.0882,-0.0603,-0.0319,-0.0152,-0.0154,-0.0126,-0.0129,-0.0132,-0.0136,-0.0156,-0.0099,-0.0099,-0.0099,-0.0808,-0.0847,-0.0952,-0.1043,-0.1147,-0.1097,-0.0889,-0.0486,-0.0124,-0.0097,-0.0161,-0.0193,-0.0157,-0.0159,-0.0169,-0.0173,-0.0207,0,0]}],[{"header":{"parameterUnit":"m.s-1","parameterCategory":2,"la1":30.2992,"la2":30.254,"lo1":-89.0895,"lo2":-89.0443,"dy":0.0025,"dx":0.0025,"nx":19,"ny":19,"refTime":"2026-04-13T09:00:00:Z","depth":"4","parameterNumber":2,"parameterNumberName":"U-component_of_CURRENTS"},"data":[0,0,0,-0.0793,-0.0796,-0.0922,-0.0922,-0.1057,-0.1058,0,0,0,0,0,0,0,0,0,0,0,-0.0762,-0.0764,-0.0793,-0.0796,-0.0922,-0.0922,-0.1057,-0.1058,0,0,0,0,0,0,0,0,0,0,0,-0.0762,-0.0763,-0.0765,-0.0796,-0.0922,-0.0922,-0.1057,-0.097,0,0,0,0,0,0,0,0,0,0,-0.0851,-0.0809,-0.0763,-0.0765,-0.0797,-0.0921,-0.0922,-0.0966,-0.0975,-0.0991,0,-0.1021,0,-0.1035,-0.1066,-0.1067,0,0,0,-0.0802,-0.0801,-0.0848,-0.0765,-0.0798,-0.0921,-0.0867,-0.0971,-0.0982,-0.1003,-0.1023,-0.1028,-0.1037,-0.1067,-0.1067,-0.1303,-0.1305,0,0,-0.0795,-0.0771,-0.0841,-0.0855,-0.0845,-0.0863,-0.087,-0.0978,-0.0986,-0.1024,-0.1031,-0.104,-0.1068,-0.1069,-0.1302,-0.1304,0,0,0,-0.0771,-0.0766,-0.0811,-0.085,-0.0871,-0.0866,-0.0875,-0.0982,-0.1001,-0.1033,-0.1041,-0.1068,-0.107,-0.13,-0.1302,-0.1368,0,0,0,-0.0767,-0.0752,-0.0808,-0.0793,-0.0869,-0.0926,-0.0876,-0.0994,-0.1006,-0.1041,-0.1068,-0.1071,-0.1298,-0.1301,-0.1362,-0.1349,0,0,0,-0.0754,-0.075,-0.0772,-0.0792,-0.0844,-0.0925,-0.0951,-0.0997,-0.1011,-0.1067,-0.1071,-0.1296,-0.13,-0.1356,-0.1342,-0.1286,0,0,0,-0.0714,-0.0745,-0.0772,-0.0814,-0.0843,-0.0939,-0.095,-0.1036,-0.109,-0.1069,-0.1298,-0.1302,-0.1355,-0.1338,-0.1284,-0.1139,0,0,0,-0.0727,-0.0746,-0.0773,-0.08,-0.0869,-0.0921,-0.1021,-0.1102,-0.116,-0.1257,-0.1263,-0.1364,-0.1342,-0.1285,-0.1382,0,0,0,0,-0.076,-0.0782,-0.0806,-0.0859,-0.093,-0.1014,-0.11,-0.116,-0.1318,-0.121,-0.1428,-0.1413,-0.1373,-0.1289,-0.1322,-0.1321,-0.1321,-0.132,-0.132,-0.0733,-0.0785,-0.0824,-0.0902,-0.0982,-0.1104,-0.1191,-0.131,-0.1363,-0.1476,-0.1515,-0.1583,-0.151,-0.1594,-0.1594,-0.1595,-0.1595,-0.1595,-0.1595,-0.0729,-0.0747,-0.0839,-0.0913,-0.1027,-0.1156,-0.1322,-0.1406,-0.1557,-0.1616,-0.1575,-0.143,-0.1603,-0.1602,-0.1601,-0.16,-0.1599,-0.1599,-0.1598,-0.0676,-0.0693,-0.0769,-0.0881,-0.1038,-0.1205,-0.1321,-0.1484,-0.1598,-0.1642,-0.151,-0.1594,-0.1523,-0.1634,-0.1634,-0.1634,-0.1634,-0.1633,-0.1633,-0.0592,-0.0656,-0.0729,-0.085,-0.0945,-0.1116,-0.1335,-0.1391,-0.1516,-0.1545,-0.1659,-0.1594,-0.1592,-0.1525,-0.163,-0.163,-0.1631,-0.1631,-0.1631,-0.0523,-0.0571,-0.0633,-0.0708,-0.0886,-0.096,-0.1159,-0.128,-0.1293,-0.1304,-0.1453,-0.1463,-0.1391,-0.1393,-0.1315,-0.1361,-0.1359,-0.1357,0,-0.0465,-0.0492,-0.0561,-0.0622,-0.0704,-0.0868,-0.0925,-0.1027,-0.1158,-0.1166,-0.1229,-0.1391,-0.1401,-0.1312,-0.1312,-0.1216,0,0,0,-0.0418,-0.0438,-0.0431,-0.0513,-0.0611,-0.0791,-0.0947,-0.098,-0.118,-0.1166,-0.1317,-0.1328,-0.1417,-0.162,-0.153,-0.1528,-0.1413,0,0]},{"header":{"parameterUnit":"m.s-1","parameterCategory":2,"la1":30.2992,"la2":30.254,"lo1":-89.0895,"lo2":-89.0443,"dy":0.0025,"dx":0.0025,"nx":19,"ny":19,"refTime":"2026-04-13T09:00:00:Z","depth":"4","parameterNumber":3,"parameterNumberName":"V-component_of_CURRENTS"},"data":[0,0,0,-0.0008,-0.0008,0.0023,0.0023,0.0094,0.0095,0,0,0,0,0,0,0,0,0,0,0,-0.0012,-0.0012,-0.0008,-0.0008,0.0023,0.0023,0.0094,0.0095,0,0,0,0,0,0,0,0,0,0,0,-0.0012,-0.0012,-0.0012,-0.0008,0.0023,0.0023,0.0094,0.0065,0,0,0,0,0,0,0,0,0,0,0.0032,0.0016,-0.0012,-0.0012,-0.0008,0.0023,0.0023,0.0063,0.0066,0.0087,0,0.0093,0,0.0091,0.01,0.01,0,0,0,-0.0001,0.0013,0.0024,-0.0012,-0.0008,0.0023,0.0011,0.0065,0.0069,0.0092,0.0093,0.0096,0.0092,0.01,0.0101,0.021,0.0211,0,0,-0.0003,-0.0007,0.0021,0.0026,0.0002,0.001,0.0012,0.0067,0.0071,0.0094,0.0097,0.0093,0.0101,0.0101,0.021,0.0211,0,0,0,-0.0012,-0.0009,-0.0,0.0024,0.0024,0.0011,0.0013,0.0069,0.0072,0.0098,0.0094,0.0101,0.0102,0.0209,0.021,0.0181,0,0,0,-0.0013,-0.0015,-0.0001,-0.0003,0.0023,0.0041,0.0014,0.0069,0.0074,0.0093,0.0101,0.0103,0.0208,0.021,0.018,0.0129,0,0,0,-0.0014,-0.0015,-0.0011,-0.0004,0.0006,0.004,0.0046,0.007,0.0072,0.01,0.0103,0.0208,0.0209,0.0179,0.013,0.0126,0,0,0,-0.0021,-0.0037,-0.0011,-0.0038,0.0005,-0.0018,0.0046,0.0047,0.0064,0.0102,0.0208,0.021,0.0179,0.013,0.0126,0.0045,0,0,0,-0.0053,-0.0041,-0.0062,-0.0038,-0.0084,-0.0022,-0.005,0.0011,0.0105,0.0192,0.0194,0.018,0.013,0.0126,0.014,0,0,0,0,-0.0081,-0.0093,-0.0104,-0.012,-0.0121,-0.0107,-0.0057,0.0004,0.0137,0.0124,0.0221,0.019,0.0188,0.0145,0.0218,0.0217,0.0217,0.0217,0.0217,-0.0114,-0.0133,-0.0179,-0.0195,-0.02,-0.0163,-0.0121,-0.0008,0.008,0.0169,0.0198,0.0212,0.0171,0.0255,0.0255,0.0255,0.0255,0.0255,0.0255,-0.0176,-0.0206,-0.0229,-0.0278,-0.0266,-0.0266,-0.0153,-0.006,0.0102,0.019,0.0192,0.0157,0.0253,0.0253,0.0253,0.0254,0.0254,0.0254,0.0254,-0.0194,-0.0215,-0.0251,-0.032,-0.0337,-0.0303,-0.0251,-0.0109,0.0059,0.0109,0.0114,0.0189,0.0154,0.0155,0.0155,0.0155,0.0155,0.0154,0.0154,-0.0193,-0.0236,-0.0295,-0.0355,-0.0385,-0.0372,-0.0271,-0.0192,-0.0035,0.0052,0.0127,0.0178,0.0181,0.015,0.0151,0.0151,0.0152,0.0152,0.0152,-0.0216,-0.0228,-0.0314,-0.0362,-0.0437,-0.0424,-0.0362,-0.0252,-0.0165,-0.0089,0.002,0.0027,0.0021,0.0028,-0.0009,-0.0056,-0.0057,-0.0058,0,-0.0215,-0.0234,-0.0325,-0.04,-0.0453,-0.0447,-0.0385,-0.031,-0.0169,-0.0164,-0.0116,0.0005,0.0012,0.0003,0.0008,-0.0037,0,0,0,-0.0232,-0.0251,-0.0303,-0.0385,-0.0453,-0.041,-0.0364,-0.033,-0.0205,-0.0181,-0.0086,-0.0079,0.0011,0.0141,0.0149,0.0153,0.0103,0,0]}]]